Weather reports worldwide

Advertisment
Örskär, Sweden (2488): temperature & dewpoint: 14.10.2019 04:00:00 - 20.10.2019 04:00:00 (CEST)Örskär, Sweden (2488): wind speed & gusts: 14.10.2019 04:00:00 - 20.10.2019 04:00:00 (CEST)Örskär, Sweden (2488): wind direction: 14.10.2019 04:00:00 - 20.10.2019 04:00:00 (CEST)Örskär, Sweden (2488): reduced air pressure: 14.10.2019 04:00:00 - 20.10.2019 04:00:00 (CEST)Örskär, Sweden (2488): visibility: 14.10.2019 04:00:00 - 20.10.2019 04:00:00 (CEST)Örskär, Sweden (2488): precipitation: 14.10.2019 04:00:00 - 20.10.2019 04:00:00 (CEST)
Date & Time tt [°C] td [°C] ff [km/h] ff [kn] fx [km/h] fx [kn] dd ppp [hPa] vv [km] rr [mm]
20.10.2019 04:00:00 7,5 6,1 29 16 41 22 E 1012,0 39 0,0
20.10.2019 03:00:00 7,5 6,3 29 15 40 22 E 1011,9 37 0,0
20.10.2019 02:00:00 7,4 6,2 29 16 38 21 E 1011,5 29 0,0
20.10.2019 01:00:00 7,2 6,0 29 16 44 24 ENE 1011,1 45 0,0
20.10.2019 00:00:00 7,1 5,9 32 18 45 24 ENE 1010,8 46 0,0
19.10.2019 23:00:00 7,1 6,0 37 20 42 23 ENE 1010,4 29 0,0
19.10.2019 22:00:00 7,2 6,3 32 17 37 20 NE 1009,8 16 0,7
19.10.2019 21:00:00 7,5 6,3 35 19 38 21 NE 1008,9 22 0,0
19.10.2019 20:00:00 7,5 6,6 33 18 41 22 NE 1008,1 40 0,1
19.10.2019 19:00:00 7,8 6,9 31 17 43 23 NNE 1007,0 13 0,2
19.10.2019 18:00:00 10,6 8,9 24 13 40 22 SSW 1005,9 16 0,0
19.10.2019 17:00:00 10,8 8,9 29 16 39 21 SSW 1004,8 45 0,0
19.10.2019 16:00:00 10,6 8,9 29 16 42 23 SSW 1004,3 38 0,0
19.10.2019 15:00:00 11,4 8,6 34 19 46 25 SSW 1003,6 35 0,0
19.10.2019 14:00:00 11,4 8,8 36 19 48 26 SW 1002,8 33 0,0
19.10.2019 13:00:00 11,3 8,7 36 19 51 27 SSW 1002,3 40 0,0
19.10.2019 12:00:00 10,8 8,4 41 22 56 31 SW 1001,8 34 0,0
19.10.2019 11:00:00 10,6 8,9 41 22 56 30 SW 1001,2 40 0,0
19.10.2019 10:00:00 10,6 9,2 40 22 48 26 SSW 1000,5 46 0,0
19.10.2019 09:00:00 10,5 9,7 31 17 42 23 SSW 999,8 47 0,0
19.10.2019 08:00:00 10,7 10,2 18 10 29 16 SSE 999,8 8 0,4
19.10.2019 07:00:00 10,5 10,0 18 10 26 14 SE 1000,0 8 2,4
19.10.2019 06:00:00 10,9 10,4 16 9 22 12 SSE 1001,0 4,4 2,4
19.10.2019 05:00:00 11,1 10,6 15 8 24 13 SSE 1001,3 17 0,0
19.10.2019 04:00:00 10,7 10,4 12 7 21 11 SSE 1002,0 20 0,0
19.10.2019 03:00:00 10,3 10,0 13 7 26 14 SSE 1002,5 10 0,0
19.10.2019 02:00:00 9,6 9,1 19 11 32 18 SE 1003,5 6 2,3
19.10.2019 01:00:00 9,2 8,7 22 12 31 17 ESE 1004,5 6 0,9
19.10.2019 00:00:00 9,1 8,6 16 9 22 12 ESE 1005,6 10 0,2
18.10.2019 23:00:00 9,2 8,7 14 8 19 10 ESE 1006,5 7 0,0
18.10.2019 22:00:00 8,8 8,3 11 6 13 7 ESE 1007,3 1,9 0,0
18.10.2019 21:00:00 8,6 8,2 6 3 7 4 ESE 1007,4 20 -
18.10.2019 20:00:00 8,9 8,4 2 1 11 6 WSW 1007,6 20 0,0
18.10.2019 19:00:00 9,0 8,5 11 6 16 9 WSW 1008,2 36 0,0
18.10.2019 18:00:00 9,2 8,7 12 6 18 10 WSW 1008,5 26 0,0
18.10.2019 17:00:00 9,3 8,8 11 6 18 10 SW 1008,2 36 0,0
18.10.2019 16:00:00 9,4 8,9 6 3 9 5 WSW 1008,2 2,4 0,0
18.10.2019 15:00:00 9,3 8,8 9 5 10 5 SW 1008,4 3,2 0,4
18.10.2019 14:00:00 9,5 9,0 7 4 11 6 SSW 1008,5 3,4 0,1
18.10.2019 13:00:00 9,7 9,2 7 4 13 7 SSE 1008,9 3,0 0,0
18.10.2019 12:00:00 9,4 8,9 7 4 16 8 S 1009,4 9 0,0
18.10.2019 11:00:00 8,9 8,4 10 5 18 10 SSE 1009,6 2,1 0,1
18.10.2019 10:00:00 8,4 8,0 10 6 18 10 SSE 1009,7 2,7 0,3
18.10.2019 09:00:00 7,7 7,3 11 6 18 10 SE 1009,8 4,4 0,1
18.10.2019 08:00:00 7,0 6,4 11 6 15 8 SE 1009,9 4,1 0,0
18.10.2019 07:00:00 6,5 5,9 8 5 11 6 SE 1009,9 - 0,0
18.10.2019 06:00:00 6,5 5,8 8 4 10 6 SSE 1010,3 50 0,0
18.10.2019 05:00:00 6,5 5,8 8 4 11 6 SSE 1010,5 50 0,0
18.10.2019 04:00:00 6,5 5,8 8 4 9 5 SSE 1010,7 50 0,0
18.10.2019 03:00:00 6,1 5,4 0 0 3 1 N 1010,9 50 0,0
18.10.2019 02:00:00 6,1 5,2 0 0 1 1 N 1010,8 50 0,0
18.10.2019 01:00:00 6,2 5,0 0 0 6 3 N 1011,0 50 0,0
18.10.2019 00:00:00 7,0 5,1 4 2 7 4 WNW 1011,1 50 0,0
17.10.2019 23:00:00 6,9 5,4 3 2 10 6 NW 1011,0 50 0,0
17.10.2019 22:00:00 7,1 5,4 6 3 10 6 NNW 1011,0 50 0,0
17.10.2019 21:00:00 7,0 5,5 6 3 9 5 NNW 1010,8 50 0,0
17.10.2019 20:00:00 6,9 5,5 5 3 12 6 N 1010,7 50 0,0
17.10.2019 19:00:00 6,9 5,7 8 4 21 11 NNE 1010,7 50 0,0
17.10.2019 18:00:00 6,9 5,5 14 7 18 10 NNE 1010,5 50 0,0
17.10.2019 17:00:00 7,0 5,8 16 8 21 11 NNE 1010,3 47 0,0
17.10.2019 16:00:00 7,0 5,8 10 5 21 11 N 1010,1 32 0,0
17.10.2019 15:00:00 7,1 6,0 11 6 17 9 N 1009,9 41 0,0
17.10.2019 14:00:00 7,0 6,1 13 7 25 13 NNE 1009,6 12 0,0
17.10.2019 13:00:00 7,2 6,0 20 11 23 13 NE 1009,1 15 0,0
17.10.2019 12:00:00 7,0 6,1 18 10 26 14 NE 1009,2 20 0,0
17.10.2019 11:00:00 7,0 5,9 21 12 29 15 NE 1008,9 22 0,0
17.10.2019 10:00:00 7,1 6,0 26 14 31 17 NE 1008,7 46 0,0
17.10.2019 09:00:00 6,9 6,3 26 14 30 16 NE 1008,3 20 0,0
17.10.2019 08:00:00 6,8 6,2 26 14 32 17 NE 1008,0 7 0,0
17.10.2019 07:00:00 6,8 6,2 26 14 32 17 NE 1007,9 5 0,2
17.10.2019 06:00:00 6,8 6,2 26 14 33 18 NE 1008,0 3,4 0,2
17.10.2019 05:00:00 6,8 6,2 30 16 36 19 NE 1008,0 3,8 0,2
17.10.2019 04:00:00 6,7 6,1 28 15 34 19 ENE 1008,0 4,4 0,2
17.10.2019 03:00:00 6,7 6,0 25 13 37 20 ENE 1008,3 3,2 0,1
17.10.2019 02:00:00 6,6 5,9 29 16 41 22 ENE 1008,3 4,5 0,0
17.10.2019 01:00:00 6,7 5,8 36 19 46 25 ENE 1008,4 11 0,0
17.10.2019 00:00:00 6,6 5,9 29 16 38 20 ENE 1008,8 10 0,0
16.10.2019 23:00:00 6,6 5,7 31 17 39 21 ENE 1009,0 9 0,0
16.10.2019 22:00:00 6,8 6,1 32 18 41 22 ENE 1009,1 10 0,0
16.10.2019 21:00:00 6,9 6,0 27 15 37 20 ENE 1009,2 12 0,1
16.10.2019 20:00:00 7,0 6,1 27 14 38 20 ENE 1009,4 14 0,0
16.10.2019 19:00:00 7,1 6,2 26 14 42 23 ENE 1009,6 19 0,0
16.10.2019 18:00:00 7,3 6,4 28 15 37 20 ENE 1009,6 23 0,0
16.10.2019 17:00:00 7,2 6,1 32 17 40 22 ENE 1009,5 30 0,0
16.10.2019 16:00:00 7,4 6,5 30 16 37 20 NE 1010,0 23 0,0
16.10.2019 15:00:00 7,2 6,5 22 12 33 18 ENE 1010,1 27 0,0
16.10.2019 14:00:00 7,4 7,0 26 14 36 20 ENE 1009,9 18 0,0
16.10.2019 13:00:00 7,3 6,9 29 15 45 25 ENE 1010,6 - 0,0
16.10.2019 12:00:00 7,3 6,9 38 20 46 25 ENE 1010,1 - 0,0
16.10.2019 11:00:00 7,7 7,3 29 16 38 21 ENE 1010,8 - 0,0
16.10.2019 10:00:00 8,0 7,6 25 13 34 18 E 1010,8 - 0,0
16.10.2019 09:00:00 8,0 7,6 27 15 37 20 E 1011,0 - 0,0
16.10.2019 08:00:00 7,9 7,5 29 16 40 22 E 1011,1 - 0,3
16.10.2019 07:00:00 8,0 7,6 24 13 35 19 E 1011,1 - 0,7
16.10.2019 06:00:00 7,9 7,3 25 14 42 23 E 1011,4 - 0,3
16.10.2019 05:00:00 7,8 7,2 29 16 42 23 E 1011,5 - 0,1
16.10.2019 04:00:00 7,9 7,3 28 15 44 24 E 1012,1 - 0,0
16.10.2019 03:00:00 7,7 7,1 32 17 46 25 E 1012,6 - 0,0
16.10.2019 02:00:00 7,5 6,9 34 18 48 26 E 1013,4 - 0,7
16.10.2019 01:00:00 7,4 6,8 35 19 50 27 E 1014,2 - 1,1
16.10.2019 00:00:00 7,3 6,6 34 19 51 28 E 1014,8 - 1,6
15.10.2019 23:00:00 6,9 6,0 40 22 56 30 E 1015,2 - 1,0
15.10.2019 22:00:00 6,9 5,7 33 18 49 27 E 1016,0 - 0,3
15.10.2019 21:00:00 6,6 5,2 32 18 50 27 E 1016,2 - 0,9
15.10.2019 20:00:00 7,1 5,7 31 17 46 25 ESE 1016,9 - 0,5
15.10.2019 19:00:00 7,2 6,0 28 15 46 25 ESE 1017,2 - 0,9
15.10.2019 18:00:00 6,9 5,5 26 14 41 22 E 1017,4 - 1,8
15.10.2019 17:00:00 7,6 6,7 22 12 34 19 ESE 1017,8 - 0,7
15.10.2019 16:00:00 7,7 6,8 18 10 28 15 ESE 1018,1 - 0,3
15.10.2019 15:00:00 7,6 6,7 15 8 25 13 SE 1018,7 - 2,7
15.10.2019 14:00:00 7,4 6,2 6 4 9 5 ESE 1020,0 - 0,8
15.10.2019 13:00:00 7,6 6,1 4 2 13 7 SE 1019,9 0,1 0,1
15.10.2019 12:00:00 7,2 5,8 9 5 12 6 SSE 1020,0 - 0,0
15.10.2019 11:00:00 6,8 5,4 5 3 8 5 S 1020,3 0,1 0,0
15.10.2019 10:00:00 6,4 5,7 4 2 11 6 SSW 1020,2 0,1 0,0
15.10.2019 09:00:00 6,0 5,4 8 4 11 6 S 1019,9 0,1 0,0
15.10.2019 08:00:00 5,5 4,9 10 6 12 7 S 1019,5 0,1 0,0
15.10.2019 07:00:00 5,1 4,7 9 5 11 6 S 1019,5 0,1 0,0
15.10.2019 06:00:00 4,1 3,7 5 3 11 6 SW 1019,7 - 0,0
15.10.2019 05:00:00 4,5 3,9 9 5 11 6 SSW 1019,9 - 0,0
15.10.2019 04:00:00 4,5 3,9 9 5 11 6 SSW 1019,3 0,1 0,0
15.10.2019 03:00:00 3,6 2,9 6 3 8 4 SW 1019,4 - 0,0
15.10.2019 02:00:00 4,6 3,7 6 4 9 5 WSW 1019,0 0,1 0,0
15.10.2019 01:00:00 3,7 2,7 7 4 8 4 S 1018,7 0,1 0,0
15.10.2019 00:00:00 4,2 3,2 3 2 5 3 S 1018,5 0,1 0,0
14.10.2019 23:00:00 3,2 2,0 5 3 8 4 SE 1017,8 0,1 0,0
14.10.2019 22:00:00 3,4 1,9 9 5 16 8 E 1017,2 0,1 0,0
14.10.2019 21:00:00 4,8 2,8 13 7 21 11 ENE 1016,3 0,1 0,0
14.10.2019 20:00:00 6,2 3,4 18 10 21 11 NE 1015,5 0,1 0,0
14.10.2019 19:00:00 7,7 3,9 18 10 23 12 NNE 1014,9 0,1 0,0
14.10.2019 18:00:00 7,9 3,9 23 12 29 16 NNE 1013,8 0,1 0,0
14.10.2019 17:00:00 7,9 4,5 27 14 34 18 NNE 1012,5 0,1 0,0
14.10.2019 16:00:00 8,0 5,5 29 16 38 21 NNE 1011,7 0,1 0,0
14.10.2019 15:00:00 8,3 5,9 27 15 36 19 NE 1010,1 0,1 0,0
14.10.2019 14:00:00 8,0 6,0 32 18 46 25 NE 1008,5 0,1 0,0
14.10.2019 13:00:00 7,9 6,4 43 23 48 26 NE 1007,1 - 0,0
14.10.2019 12:00:00 8,0 7,1 44 24 51 28 NE 1006,4 28 0,1
14.10.2019 11:00:00 8,3 7,5 45 24 51 28 ENE 1005,5 19 1,0
14.10.2019 10:00:00 8,1 7,3 18 10 21 12 ENE 1005,1 9 1,6
14.10.2019 09:00:00 7,8 7,0 11 6 24 13 ENE 1004,4 15 1,5
14.10.2019 08:00:00 8,3 7,7 13 7 35 19 ESE 1004,1 7 2,8
14.10.2019 07:00:00 8,3 7,5 26 14 45 25 E 1004,4 8 -
14.10.2019 06:00:00 7,6 6,7 26 14 37 20 E 1004,7 7 1,3
14.10.2019 05:00:00 8,0 6,9 24 13 41 22 ESE 1005,4 19 0,3
14.10.2019 04:00:00 8,0 6,1 28 15 40 21 E 1006,0 50 0,0

tt = temperature
td = dewpoint
ff = wind speed
fx = gusts
dd = wind direction
ppp = reduced air pressure
vv = visibility
rr = precipitation

Next stations